Time,TemperatureF,DewpointF,PressureIn,WindDirection,WindDirectionDegrees,WindSpeedMPH,WindSpeedGustMPH,Humidity,HourlyPrecipIn,Conditions,Clouds,dailyrainin,SoftwareType,DateUTC
2013-08-11 00:00:00,64.1,56.7,30.09,East,85,1.0,1.0,77,0.00,,,0.00,Wunderground v.1.15,2013-08-11 04:00:00,
2013-08-11 00:01:00,64.1,56.7,30.09,East,85,1.0,1.0,77,0.00,,,0.00,Wunderground v.1.15,2013-08-11 04:01:00,
2013-08-11 00:02:00,64.1,56.7,30.09,East,85,1.0,1.0,77,0.00,,,0.00,Wunderground v.1.15,2013-08-11 04:02:00,
2013-08-11 00:03:00,64.0,56.6,30.09,East,85,1.0,1.0,77,0.00,,,0.00,Wunderground v.1.15,2013-08-11 04:03:00,
2013-08-11 00:05:00,63.9,56.5,30.09,East,85,1.0,1.0,77,0.00,,,0.00,Wunderground v.1.15,2013-08-11 04:05:00,
2013-08-11 00:10:00,64.0,56.6,30.09,East,85,1.0,1.0,77,0.00,,,0.00,Wunderground v.1.15,2013-08-11 04:10:00,
2013-08-11 00:13:00,63.9,56.5,30.09,East,85,0.0,1.0,77,0.00,,,0.00,Wunderground v.1.15,2013-08-11 04:13:00,
2013-08-11 01:00:00,62.5,56.6,30.08,East,85,0.0,0.0,81,0.00,,,0.00,Wunderground v.1.15,2013-08-11 05:00:00,
2013-08-11 01:06:00,61.8,56.6,30.08,East,85,0.0,1.0,83,0.00,,,0.00,Wunderground v.1.15,2013-08-11 05:06:00,
2013-08-11 01:11:00,61.4,56.5,30.08,East,85,0.0,0.0,84,0.00,,,0.00,Wunderground v.1.15,2013-08-11 05:11:00,
2013-08-11 01:17:00,61.6,56.7,30.08,East,85,0.0,0.0,84,0.00,,,0.00,Wunderground v.1.15,2013-08-11 05:17:00,
2013-08-11 01:22:00,61.6,56.7,30.08,East,85,0.0,0.0,84,0.00,,,0.00,Wunderground v.1.15,2013-08-11 05:22:00,
2013-08-11 01:27:00,61.2,56.7,30.08,East,85,0.0,0.0,85,0.00,,,0.00,Wunderground v.1.15,2013-08-11 05:27:00,
2013-08-11 01:33:00,60.5,56.3,30.08,East,85,0.0,0.0,86,0.00,,,0.00,Wunderground v.1.15,2013-08-11 05:33:00,
2013-08-11 01:38:00,60.3,56.4,30.08,East,85,0.0,0.0,87,0.00,,,0.00,Wunderground v.1.15,2013-08-11 05:38:00,
2013-08-11 01:43:00,60.4,56.5,30.08,East,85,0.0,0.0,87,0.00,,,0.00,Wunderground v.1.15,2013-08-11 05:43:00,
2013-08-11 01:49:00,60.5,56.6,30.08,East,85,0.0,0.0,87,0.00,,,0.00,Wunderground v.1.15,2013-08-11 05:49:00,
2013-08-11 01:54:00,60.7,56.5,30.08,East,85,0.0,0.0,86,0.00,,,0.00,Wunderground v.1.15,2013-08-11 05:54:00,
2013-08-11 01:59:00,61.1,56.9,30.08,East,85,0.0,0.0,86,0.00,,,0.00,Wunderground v.1.15,2013-08-11 05:59:00,
2013-08-11 02:05:00,60.7,56.8,30.08,East,85,0.0,0.0,87,0.00,,,0.00,Wunderground v.1.15,2013-08-11 06:05:00,
2013-08-11 02:10:00,60.0,56.1,30.08,East,85,0.0,1.0,87,0.00,,,0.00,Wunderground v.1.15,2013-08-11 06:10:00,
2013-08-11 02:16:00,59.9,56.3,30.08,East,85,0.0,0.0,88,0.00,,,0.00,Wunderground v.1.15,2013-08-11 06:16:00,
2013-08-11 02:22:00,59.8,56.6,30.08,East,85,0.0,0.0,89,0.00,,,0.00,Wunderground v.1.15,2013-08-11 06:22:00,
2013-08-11 02:27:00,59.4,56.2,30.08,East,85,0.0,0.0,89,0.00,,,0.00,Wunderground v.1.15,2013-08-11 06:27:00,
2013-08-11 02:33:00,59.4,56.5,30.08,East,85,0.0,0.0,90,0.00,,,0.00,Wunderground v.1.15,2013-08-11 06:33:00,
2013-08-11 02:39:00,59.1,56.2,30.08,East,85,0.0,0.0,90,0.00,,,0.00,Wunderground v.1.15,2013-08-11 06:39:00,
2013-08-11 02:44:00,59.0,56.1,30.08,East,85,0.0,0.0,90,0.00,,,0.00,Wunderground v.1.15,2013-08-11 06:44:00,
2013-08-11 02:50:00,58.7,55.8,30.08,East,85,0.0,0.0,90,0.00,,,0.00,Wunderground v.1.15,2013-08-11 06:50:00,
2013-08-11 02:56:00,58.6,56.0,30.08,East,85,0.0,0.0,91,0.00,,,0.00,Wunderground v.1.15,2013-08-11 06:56:00,
2013-08-11 03:01:00,58.4,55.8,30.08,East,85,0.0,0.0,91,0.00,,,0.00,Wunderground v.1.15,2013-08-11 07:01:00,
2013-08-11 03:07:00,58.3,55.7,30.08,East,85,0.0,0.0,91,0.00,,,0.00,Wunderground v.1.15,2013-08-11 07:07:00,
2013-08-11 03:12:00,58.2,55.6,30.08,East,85,0.0,0.0,91,0.00,,,0.00,Wunderground v.1.15,2013-08-11 07:12:00,
2013-08-11 03:17:00,58.2,55.9,30.08,East,85,0.0,0.0,92,0.00,,,0.00,Wunderground v.1.15,2013-08-11 07:17:00,
2013-08-11 03:22:00,58.5,56.2,30.08,East,85,0.0,0.0,92,0.00,,,0.00,Wunderground v.1.15,2013-08-11 07:22:00,
2013-08-11 03:28:00,58.3,55.7,30.08,East,85,0.0,0.0,91,0.00,,,0.00,Wunderground v.1.15,2013-08-11 07:28:00,
2013-08-11 03:33:00,58.2,55.9,30.08,East,85,0.0,0.0,92,0.00,,,0.00,Wunderground v.1.15,2013-08-11 07:33:00,
2013-08-11 03:39:00,58.2,55.9,30.08,East,85,0.0,0.0,92,0.00,,,0.00,Wunderground v.1.15,2013-08-11 07:39:00,
2013-08-11 03:44:00,57.9,55.6,30.08,East,85,0.0,0.0,92,0.00,,,0.00,Wunderground v.1.15,2013-08-11 07:44:00,
2013-08-11 03:50:00,57.6,55.3,30.08,East,85,0.0,0.0,92,0.00,,,0.00,Wunderground v.1.15,2013-08-11 07:50:00,
2013-08-11 03:55:00,57.6,55.3,30.08,East,85,0.0,0.0,92,0.00,,,0.00,Wunderground v.1.15,2013-08-11 07:55:00,
2013-08-11 04:01:00,57.8,55.8,30.08,East,85,0.0,0.0,93,0.00,,,0.00,Wunderground v.1.15,2013-08-11 08:01:00,
2013-08-11 04:06:00,58.2,56.2,30.08,East,85,0.0,0.0,93,0.00,,,0.00,Wunderground v.1.15,2013-08-11 08:06:00,
2013-08-11 04:12:00,58.1,55.8,30.08,East,85,0.0,0.0,92,0.00,,,0.00,Wunderground v.1.15,2013-08-11 08:12:00,
2013-08-11 04:18:00,57.9,55.6,30.08,East,85,0.0,0.0,92,0.00,,,0.00,Wunderground v.1.15,2013-08-11 08:18:00,
2013-08-11 04:25:00,57.9,55.9,30.08,East,85,0.0,0.0,93,0.00,,,0.00,Wunderground v.1.15,2013-08-11 08:25:00,
2013-08-11 04:30:00,58.4,56.4,30.08,East,85,0.0,0.0,93,0.00,,,0.00,Wunderground v.1.15,2013-08-11 08:30:00,
2013-08-11 04:36:00,58.3,56.0,30.08,East,85,0.0,0.0,92,0.00,,,0.00,Wunderground v.1.15,2013-08-11 08:36:00,
2013-08-11 04:41:00,58.0,55.7,30.08,East,85,0.0,0.0,92,0.00,,,0.00,Wunderground v.1.15,2013-08-11 08:41:00,
2013-08-11 04:47:00,57.9,55.6,30.08,East,85,0.0,0.0,92,0.00,,,0.00,Wunderground v.1.15,2013-08-11 08:47:00,
2013-08-11 04:52:00,57.8,55.8,30.08,East,85,0.0,0.0,93,0.00,,,0.00,Wunderground v.1.15,2013-08-11 08:52:00,
2013-08-11 04:57:00,57.9,55.9,30.08,East,85,0.0,0.0,93,0.00,,,0.00,Wunderground v.1.15,2013-08-11 08:57:00,
2013-08-11 05:03:00,58.5,56.2,30.08,East,85,0.0,0.0,92,0.00,,,0.00,Wunderground v.1.15,2013-08-11 09:03:00,
2013-08-11 05:08:00,58.7,56.4,30.08,East,85,0.0,0.0,92,0.00,,,0.00,Wunderground v.1.15,2013-08-11 09:08:00,
2013-08-11 05:14:00,59.0,56.7,30.08,East,85,0.0,0.0,92,0.00,,,0.00,Wunderground v.1.15,2013-08-11 09:14:00,
2013-08-11 05:20:00,59.0,56.4,30.08,East,85,0.0,0.0,91,0.00,,,0.00,Wunderground v.1.15,2013-08-11 09:20:00,
2013-08-11 05:25:00,59.2,56.6,30.08,East,85,0.0,0.0,91,0.00,,,0.00,Wunderground v.1.15,2013-08-11 09:25:00,
2013-08-11 05:31:00,59.0,56.1,30.08,East,85,0.0,0.0,90,0.00,,,0.00,Wunderground v.1.15,2013-08-11 09:31:00,
2013-08-11 05:36:00,58.7,56.1,30.08,East,85,0.0,0.0,91,0.00,,,0.00,Wunderground v.1.15,2013-08-11 09:36:00,
2013-08-11 05:42:00,58.3,55.7,30.07,East,85,0.0,0.0,91,0.00,,,0.00,Wunderground v.1.15,2013-08-11 09:42:00,
2013-08-11 05:47:00,58.0,55.4,30.08,East,85,0.0,0.0,91,0.00,,,0.00,Wunderground v.1.15,2013-08-11 09:47:00,
2013-08-11 05:53:00,57.8,55.5,30.08,East,85,0.0,0.0,92,0.00,,,0.00,Wunderground v.1.15,2013-08-11 09:53:00,
2013-08-11 05:58:00,57.9,55.6,30.08,East,85,0.0,0.0,92,0.00,,,0.00,Wunderground v.1.15,2013-08-11 09:58:00,
2013-08-11 06:03:00,57.8,55.5,30.08,East,85,0.0,1.0,92,0.00,,,0.00,Wunderground v.1.15,2013-08-11 10:03:00,
2013-08-11 06:09:00,58.0,55.7,30.08,East,85,1.0,3.0,92,0.00,,,0.00,Wunderground v.1.15,2013-08-11 10:09:00,
2013-08-11 06:14:00,58.2,55.9,30.08,East,85,0.0,1.0,92,0.00,,,0.00,Wunderground v.1.15,2013-08-11 10:14:00,
2013-08-11 06:19:00,58.5,56.2,30.09,East,85,0.0,1.0,92,0.00,,,0.00,Wunderground v.1.15,2013-08-11 10:19:00,
2013-08-11 06:25:00,58.7,56.4,30.08,East,85,0.0,0.0,92,0.00,,,0.00,Wunderground v.1.15,2013-08-11 10:25:00,
2013-08-11 06:30:00,58.8,56.2,30.08,East,85,0.0,0.0,91,0.00,,,0.00,Wunderground v.1.15,2013-08-11 10:30:00,
2013-08-11 06:36:00,59.2,56.3,30.08,East,85,0.0,0.0,90,0.00,,,0.00,Wunderground v.1.15,2013-08-11 10:36:00,
2013-08-11 06:42:00,58.9,56.3,30.08,East,85,0.0,0.0,91,0.00,,,0.00,Wunderground v.1.15,2013-08-11 10:42:00,
2013-08-11 06:47:00,58.9,56.3,30.09,East,85,0.0,0.0,91,0.00,,,0.00,Wunderground v.1.15,2013-08-11 10:47:00,
2013-08-11 06:53:00,59.1,56.5,30.09,East,85,0.0,0.0,91,0.00,,,0.00,Wunderground v.1.15,2013-08-11 10:53:00,
2013-08-11 06:58:00,59.3,56.7,30.09,East,85,0.0,0.0,91,0.00,,,0.00,Wunderground v.1.15,2013-08-11 10:58:00,
2013-08-11 07:04:00,59.4,56.5,30.09,East,85,0.0,0.0,90,0.00,,,0.00,Wunderground v.1.15,2013-08-11 11:04:00,
2013-08-11 07:10:00,59.5,56.3,30.09,East,85,0.0,0.0,89,0.00,,,0.00,Wunderground v.1.15,2013-08-11 11:10:00,
2013-08-11 07:16:00,59.8,56.6,30.09,East,85,0.0,0.0,89,0.00,,,0.00,Wunderground v.1.15,2013-08-11 11:16:00,
2013-08-11 07:21:00,60.0,56.4,30.09,East,85,0.0,0.0,88,0.00,,,0.00,Wunderground v.1.15,2013-08-11 11:21:00,
2013-08-11 07:28:00,60.1,56.8,30.09,East,85,1.0,5.0,89,0.00,,,0.00,Wunderground v.1.15,2013-08-11 11:28:00,
2013-08-11 07:33:00,60.2,56.3,30.10,NNE,30,3.0,6.0,87,0.00,,,0.00,Wunderground v.1.15,2013-08-11 11:33:00,
2013-08-11 07:39:00,61.0,56.1,30.09,NNE,30,3.0,6.0,84,0.00,,,0.00,Wunderground v.1.15,2013-08-11 11:39:00,
2013-08-11 07:45:00,61.6,56.7,30.09,NNE,30,1.0,2.0,84,0.00,,,0.00,Wunderground v.1.15,2013-08-11 11:45:00,
2013-08-11 07:50:00,61.6,56.0,30.09,NNE,30,0.0,0.0,82,0.00,,,0.00,Wunderground v.1.15,2013-08-11 11:50:00,
2013-08-11 07:56:00,62.3,55.7,30.09,NNE,30,0.0,2.0,79,0.00,,,0.00,Wunderground v.1.15,2013-08-11 11:56:00,
2013-08-11 08:02:00,62.6,56.3,30.09,NNE,30,1.0,1.0,80,0.00,,,0.00,Wunderground v.1.15,2013-08-11 12:02:00,
2013-08-11 08:08:00,62.2,56.6,30.08,NNE,30,0.0,1.0,82,0.00,,,0.00,Wunderground v.1.15,2013-08-11 12:08:00,
2013-08-11 08:14:00,61.8,56.9,30.08,NNE,30,0.0,0.0,84,0.00,,,0.00,Wunderground v.1.15,2013-08-11 12:14:00,
2013-08-11 08:19:00,62.0,56.8,30.09,NNE,30,0.0,0.0,83,0.00,,,0.00,Wunderground v.1.15,2013-08-11 12:19:00,
2013-08-11 08:24:00,62.4,57.5,30.08,NNE,30,0.0,0.0,84,0.00,,,0.00,Wunderground v.1.15,2013-08-11 12:24:00,
2013-08-11 08:30:00,62.2,57.6,30.09,NNE,30,0.0,1.0,85,0.00,,,0.00,Wunderground v.1.15,2013-08-11 12:30:00,
2013-08-11 08:36:00,62.3,57.4,30.08,NNE,30,0.0,1.0,84,0.00,,,0.00,Wunderground v.1.15,2013-08-11 12:36:00,
2013-08-11 08:42:00,62.8,57.2,30.08,NNE,30,0.0,0.0,82,0.00,,,0.00,Wunderground v.1.15,2013-08-11 12:42:00,
2013-08-11 08:47:00,63.4,57.5,30.08,NNE,30,0.0,0.0,81,0.00,,,0.00,Wunderground v.1.15,2013-08-11 12:47:00,
2013-08-11 08:52:00,63.7,57.8,30.09,NNE,30,0.0,0.0,81,0.00,,,0.00,Wunderground v.1.15,2013-08-11 12:52:00,
2013-08-11 08:58:00,64.1,57.8,30.09,NNE,30,0.0,0.0,80,0.00,,,0.00,Wunderground v.1.15,2013-08-11 12:58:00,
2013-08-11 09:04:00,64.8,58.5,30.09,NNE,30,0.0,0.0,80,0.00,,,0.00,Wunderground v.1.15,2013-08-11 13:04:00,
2013-08-11 09:09:00,65.0,58.7,30.09,NNE,30,0.0,1.0,80,0.00,,,0.00,Wunderground v.1.15,2013-08-11 13:09:00,
2013-08-11 09:15:00,65.7,58.3,30.09,NNE,30,0.0,1.0,77,0.00,,,0.00,Wunderground v.1.15,2013-08-11 13:15:00,
2013-08-11 09:20:00,66.3,58.5,30.08,NNE,30,1.0,2.0,76,0.00,,,0.00,Wunderground v.1.15,2013-08-11 13:20:00,
2013-08-11 09:26:00,66.8,58.6,30.08,NNE,30,1.0,2.0,75,0.00,,,0.00,Wunderground v.1.15,2013-08-11 13:26:00,
2013-08-11 09:31:00,67.5,59.3,30.09,NNE,30,1.0,2.0,75,0.00,,,0.00,Wunderground v.1.15,2013-08-11 13:31:00,
2013-08-11 09:37:00,67.7,59.5,30.08,NNE,30,1.0,2.0,75,0.00,,,0.00,Wunderground v.1.15,2013-08-11 13:37:00,
2013-08-11 09:42:00,68.5,60.6,30.09,NNE,30,1.0,2.0,76,0.00,,,0.00,Wunderground v.1.15,2013-08-11 13:42:00,
2013-08-11 09:48:00,68.9,60.6,30.09,NNE,30,1.0,3.0,75,0.00,,,0.00,Wunderground v.1.15,2013-08-11 13:48:00,
2013-08-11 09:54:00,69.6,61.3,30.08,NNE,30,1.0,1.0,75,0.00,,,0.00,Wunderground v.1.15,2013-08-11 13:54:00,
2013-08-11 10:00:00,69.9,61.2,30.08,NNE,30,2.0,2.0,74,0.00,,,0.00,Wunderground v.1.15,2013-08-11 14:00:00,
2013-08-11 10:06:00,70.3,62.0,30.08,NNE,30,2.0,5.0,75,0.00,,,0.00,Wunderground v.1.15,2013-08-11 14:06:00,
2013-08-11 10:12:00,70.7,62.0,30.08,SSE,168,2.0,6.0,74,0.00,,,0.00,Wunderground v.1.15,2013-08-11 14:12:00,
2013-08-11 10:17:00,70.8,62.5,30.08,SSW,198,2.0,6.0,75,0.00,,,0.00,Wunderground v.1.15,2013-08-11 14:17:00,
2013-08-11 10:22:00,71.0,62.3,30.09,SSW,200,2.0,3.0,74,0.00,,,0.00,Wunderground v.1.15,2013-08-11 14:22:00,
2013-08-11 10:27:00,71.3,61.8,30.09,South,179,3.0,4.0,72,0.00,,,0.00,Wunderground v.1.15,2013-08-11 14:27:00,
2013-08-11 10:33:00,71.7,62.2,30.08,SSW,192,3.0,6.0,72,0.00,,,0.00,Wunderground v.1.15,2013-08-11 14:33:00,
2013-08-11 10:39:00,71.7,61.8,30.08,SSW,192,4.0,7.0,71,0.00,,,0.00,Wunderground v.1.15,2013-08-11 14:39:00,
2013-08-11 10:44:00,72.1,62.2,30.08,South,187,4.0,5.0,71,0.00,,,0.00,Wunderground v.1.15,2013-08-11 14:44:00,
2013-08-11 10:50:00,73.2,62.4,30.08,South,186,3.0,3.0,69,0.00,,,0.00,Wunderground v.1.15,2013-08-11 14:50:00,
2013-08-11 10:55:00,72.9,61.3,30.08,SSW,213,3.0,7.0,67,0.00,,,0.00,Wunderground v.1.15,2013-08-11 14:55:00,
2013-08-11 11:01:00,72.2,61.5,30.08,SW,216,5.0,5.0,69,0.00,,,0.00,Wunderground v.1.15,2013-08-11 15:01:00,
2013-08-11 11:07:00,73.0,61.8,30.08,SW,216,3.0,5.0,68,0.00,,,0.00,Wunderground v.1.15,2013-08-11 15:07:00,
2013-08-11 11:12:00,74.5,62.8,30.08,SSW,207,1.0,3.0,67,0.00,,,0.00,Wunderground v.1.15,2013-08-11 15:12:00,
2013-08-11 11:18:00,73.6,61.5,30.08,South,190,3.0,4.0,66,0.00,,,0.00,Wunderground v.1.15,2013-08-11 15:18:00,
2013-08-11 11:23:00,73.0,61.8,30.08,SSW,194,4.0,7.0,68,0.00,,,0.00,Wunderground v.1.15,2013-08-11 15:23:00,
2013-08-11 11:29:00,72.8,62.0,30.08,SSW,211,5.0,7.0,69,0.00,,,0.00,Wunderground v.1.15,2013-08-11 15:29:00,
2013-08-11 11:34:00,73.5,62.3,30.07,WSW,249,4.0,5.0,68,0.00,,,0.00,Wunderground v.1.15,2013-08-11 15:34:00,
2013-08-11 11:40:00,74.3,62.2,30.07,SW,232,3.0,5.0,66,0.00,,,0.00,Wunderground v.1.15,2013-08-11 15:40:00,
2013-08-11 11:45:00,74.1,61.6,30.07,SSW,213,5.0,7.0,65,0.00,,,0.00,Wunderground v.1.15,2013-08-11 15:45:00,
2013-08-11 11:51:00,74.3,61.8,30.07,SW,232,4.0,4.0,65,0.00,,,0.00,Wunderground v.1.15,2013-08-11 15:51:00,
2013-08-11 11:57:00,74.2,61.7,30.07,SSW,194,3.0,5.0,65,0.00,,,0.00,Wunderground v.1.15,2013-08-11 15:57:00,
2013-08-11 12:03:00,74.5,61.5,30.07,SW,225,3.0,4.0,64,0.00,,,0.00,Wunderground v.1.15,2013-08-11 16:03:00,
2013-08-11 12:09:00,75.2,61.3,30.06,SW,232,3.0,7.0,62,0.00,,,0.00,Wunderground v.1.15,2013-08-11 16:09:00,
2013-08-11 12:15:00,74.6,61.6,30.07,SSW,196,3.0,8.0,64,0.00,,,0.00,Wunderground v.1.15,2013-08-11 16:15:00,
2013-08-11 12:21:00,75.3,61.8,30.07,WSW,248,5.0,5.0,63,0.00,,,0.00,Wunderground v.1.15,2013-08-11 16:21:00,
2013-08-11 12:28:00,75.4,61.0,30.07,SW,229,4.0,8.0,61,0.00,,,0.00,Wunderground v.1.15,2013-08-11 16:28:00,
2013-08-11 12:34:00,75.6,61.2,30.07,WNW,282,3.0,6.0,61,0.00,,,0.00,Wunderground v.1.15,2013-08-11 16:34:00,
2013-08-11 12:39:00,75.2,60.4,30.07,WSW,246,4.0,11.0,60,0.00,,,0.00,Wunderground v.1.15,2013-08-11 16:39:00,
2013-08-11 12:45:00,74.8,61.4,30.06,WSW,256,4.0,5.0,63,0.00,,,0.00,Wunderground v.1.15,2013-08-11 16:45:00,
2013-08-11 12:51:00,74.8,60.9,30.06,WSW,248,3.0,6.0,62,0.00,,,0.00,Wunderground v.1.15,2013-08-11 16:51:00,
2013-08-11 12:56:00,75.5,61.6,30.06,West,271,4.0,7.0,62,0.00,,,0.00,Wunderground v.1.15,2013-08-11 16:56:00,
2013-08-11 13:02:00,75.6,60.3,30.06,SW,217,5.0,7.0,59,0.00,,,0.00,Wunderground v.1.15,2013-08-11 17:02:00,
2013-08-11 13:08:00,75.9,60.5,30.06,WSW,244,5.0,7.0,59,0.00,,,0.00,Wunderground v.1.15,2013-08-11 17:08:00,
2013-08-11 13:14:00,76.4,60.0,30.06,SW,224,5.0,7.0,57,0.00,,,0.00,Wunderground v.1.15,2013-08-11 17:14:00,
2013-08-11 13:20:00,75.8,60.0,30.05,SW,233,5.0,5.0,58,0.00,,,0.00,Wunderground v.1.15,2013-08-11 17:20:00,
2013-08-11 13:25:00,76.1,60.2,30.05,WSW,241,5.0,5.0,58,0.00,,,0.00,Wunderground v.1.15,2013-08-11 17:25:00,
2013-08-11 13:31:00,76.0,57.6,30.05,WNW,284,5.0,6.0,53,0.00,,,0.00,Wunderground v.1.15,2013-08-11 17:31:00,
2013-08-11 13:36:00,75.9,58.6,30.05,West,262,5.0,6.0,55,0.00,,,0.00,Wunderground v.1.15,2013-08-11 17:36:00,
2013-08-11 13:42:00,76.2,58.9,30.05,West,259,3.0,4.0,55,0.00,,,0.00,Wunderground v.1.15,2013-08-11 17:42:00,
2013-08-11 13:47:00,76.1,59.8,30.05,SSW,207,3.0,5.0,57,0.00,,,0.00,Wunderground v.1.15,2013-08-11 17:47:00,
2013-08-11 13:52:00,76.5,59.6,30.05,South,191,5.0,10.0,56,0.00,,,0.00,Wunderground v.1.15,2013-08-11 17:52:00,
2013-08-11 13:57:00,76.4,60.0,30.05,SSW,196,6.0,10.0,57,0.00,,,0.00,Wunderground v.1.15,2013-08-11 17:57:00,
2013-08-11 14:03:00,76.5,57.0,30.05,West,270,5.0,8.0,51,0.00,,,0.00,Wunderground v.1.15,2013-08-11 18:03:00,
2013-08-11 14:08:00,76.2,56.7,30.05,SSW,213,6.0,10.0,51,0.00,,,0.00,Wunderground v.1.15,2013-08-11 18:08:00,
2013-08-11 14:14:00,76.4,58.5,30.05,SW,225,6.0,7.0,54,0.00,,,0.00,Wunderground v.1.15,2013-08-11 18:14:00,
2013-08-11 14:19:00,76.3,58.9,30.05,West,263,5.0,7.0,55,0.00,,,0.00,Wunderground v.1.15,2013-08-11 18:19:00,
2013-08-11 14:24:00,77.3,59.4,30.05,WSW,257,5.0,7.0,54,0.00,,,0.00,Wunderground v.1.15,2013-08-11 18:24:00,
2013-08-11 14:29:00,77.1,58.6,30.05,West,259,4.0,7.0,53,0.00,,,0.00,Wunderground v.1.15,2013-08-11 18:29:00,
2013-08-11 14:35:00,76.5,58.6,30.05,West,266,5.0,8.0,54,0.00,,,0.00,Wunderground v.1.15,2013-08-11 18:35:00,
2013-08-11 14:40:00,76.9,59.5,30.04,West,267,4.0,4.0,55,0.00,,,0.00,Wunderground v.1.15,2013-08-11 18:40:00,
2013-08-11 14:46:00,77.3,59.4,30.05,WSW,256,3.0,7.0,54,0.00,,,0.00,Wunderground v.1.15,2013-08-11 18:46:00,
2013-08-11 14:51:00,77.5,57.9,30.04,WNW,288,4.0,9.0,51,0.00,,,0.00,Wunderground v.1.15,2013-08-11 18:51:00,
2013-08-11 14:56:00,77.6,57.5,30.04,West,277,5.0,9.0,50,0.00,,,0.00,Wunderground v.1.15,2013-08-11 18:56:00,
2013-08-11 15:04:00,77.3,57.2,30.05,WSW,249,6.0,6.0,50,0.00,,,0.00,Wunderground v.1.15,2013-08-11 19:04:00,
2013-08-11 15:10:00,76.7,57.2,30.04,West,273,7.0,10.0,51,0.00,,,0.00,Wunderground v.1.15,2013-08-11 19:10:00,
2013-08-11 15:15:00,76.9,57.9,30.04,NW,313,7.0,8.0,52,0.00,,,0.00,Wunderground v.1.15,2013-08-11 19:15:00,
2013-08-11 15:20:00,76.8,57.8,30.04,WSW,248,6.0,6.0,52,0.00,,,0.00,Wunderground v.1.15,2013-08-11 19:20:00,
2013-08-11 15:25:00,76.9,58.5,30.04,WNW,282,5.0,9.0,53,0.00,,,0.00,Wunderground v.1.15,2013-08-11 19:25:00,
2013-08-11 15:31:00,76.9,57.9,30.04,West,269,6.0,8.0,52,0.00,,,0.00,Wunderground v.1.15,2013-08-11 19:31:00,
2013-08-11 15:37:00,77.2,58.7,30.04,SW,224,6.0,8.0,53,0.00,,,0.00,Wunderground v.1.15,2013-08-11 19:37:00,
2013-08-11 15:42:00,76.9,58.5,30.04,NW,323,6.0,9.0,53,0.00,,,0.00,Wunderground v.1.15,2013-08-11 19:42:00,
2013-08-11 15:47:00,76.9,57.9,30.04,WSW,244,6.0,9.0,52,0.00,,,0.00,Wunderground v.1.15,2013-08-11 19:47:00,
2013-08-11 15:53:00,78.0,58.9,30.03,WNW,282,5.0,5.0,52,0.00,,,0.00,Wunderground v.1.15,2013-08-11 19:53:00,
2013-08-11 15:59:00,77.8,58.2,30.03,West,281,4.0,5.0,51,0.00,,,0.00,Wunderground v.1.15,2013-08-11 19:59:00,
2013-08-11 16:04:00,78.2,58.6,30.03,West,276,6.0,7.0,51,0.00,,,0.00,Wunderground v.1.15,2013-08-11 20:04:00,
2013-08-11 16:10:00,77.6,56.4,30.03,SW,233,6.0,7.0,48,0.00,,,0.00,Wunderground v.1.15,2013-08-11 20:10:00,
2013-08-11 16:15:00,77.2,56.6,30.03,West,277,7.0,11.0,49,0.00,,,0.00,Wunderground v.1.15,2013-08-11 20:15:00,
2013-08-11 16:20:00,78.0,56.7,30.03,NW,317,7.0,7.0,48,0.00,,,0.00,Wunderground v.1.15,2013-08-11 20:20:00,
2013-08-11 16:25:00,78.4,57.1,30.03,West,280,6.0,11.0,48,0.00,,,0.00,Wunderground v.1.15,2013-08-11 20:25:00,
2013-08-11 16:31:00,77.5,57.4,30.03,NW,317,5.0,5.0,50,0.00,,,0.00,Wunderground v.1.15,2013-08-11 20:31:00,
2013-08-11 16:37:00,77.1,58.6,30.03,WNW,290,6.0,10.0,53,0.00,,,0.00,Wunderground v.1.15,2013-08-11 20:37:00,
2013-08-11 16:42:00,77.1,58.6,30.03,WNW,290,7.0,12.0,53,0.00,,,0.00,Wunderground v.1.15,2013-08-11 20:42:00,
2013-08-11 16:47:00,77.9,59.4,30.02,WNW,293,7.0,12.0,53,0.00,,,0.00,Wunderground v.1.15,2013-08-11 20:47:00,
2013-08-11 16:53:00,78.4,58.2,30.02,WNW,288,5.0,7.0,50,0.00,,,0.00,Wunderground v.1.15,2013-08-11 20:53:00,
2013-08-11 16:58:00,77.6,59.1,30.02,NW,313,5.0,7.0,53,0.00,,,0.00,Wunderground v.1.15,2013-08-11 20:58:00,
2013-08-11 17:04:00,77.6,58.0,30.02,WNW,289,6.0,8.0,51,0.00,,,0.00,Wunderground v.1.15,2013-08-11 21:04:00,
2013-08-11 17:09:00,77.9,58.3,30.02,WNW,301,6.0,8.0,51,0.00,,,0.00,Wunderground v.1.15,2013-08-11 21:09:00,
2013-08-11 17:15:00,77.2,58.7,30.02,NNW,334,7.0,11.0,53,0.00,,,0.00,Wunderground v.1.15,2013-08-11 21:15:00,
2013-08-11 17:21:00,77.3,58.8,30.01,WNW,303,6.0,6.0,53,0.00,,,0.00,Wunderground v.1.15,2013-08-11 21:21:00,
2013-08-11 17:26:00,77.4,58.4,30.02,WNW,300,6.0,9.0,52,0.00,,,0.00,Wunderground v.1.15,2013-08-11 21:26:00,
2013-08-11 17:31:00,77.1,58.1,30.01,WNW,286,5.0,7.0,52,0.00,,,0.00,Wunderground v.1.15,2013-08-11 21:31:00,
2013-08-11 17:37:00,76.6,58.2,30.01,West,277,5.0,9.0,53,0.00,,,0.00,Wunderground v.1.15,2013-08-11 21:37:00,
2013-08-11 17:43:00,76.6,58.2,30.01,WNW,290,5.0,7.0,53,0.00,,,0.00,Wunderground v.1.15,2013-08-11 21:43:00,
2013-08-11 17:48:00,77.0,58.6,30.01,WNW,290,5.0,7.0,53,0.00,,,0.00,Wunderground v.1.15,2013-08-11 21:48:00,
2013-08-11 17:54:00,76.4,59.0,30.01,NW,317,4.0,5.0,55,0.00,,,0.00,Wunderground v.1.15,2013-08-11 21:54:00,
2013-08-11 17:59:00,76.4,59.0,30.01,NW,318,4.0,6.0,55,0.00,,,0.00,Wunderground v.1.15,2013-08-11 21:59:00,
2013-08-11 18:05:00,76.0,59.2,30.01,NW,314,3.0,5.0,56,0.00,,,0.00,Wunderground v.1.15,2013-08-11 22:05:00,
2013-08-11 18:10:00,76.0,58.7,30.01,NW,306,5.0,8.0,55,0.00,,,0.00,Wunderground v.1.15,2013-08-11 22:10:00,
2013-08-11 18:15:00,75.9,58.6,30.01,West,278,6.0,7.0,55,0.00,,,0.00,Wunderground v.1.15,2013-08-11 22:15:00,
2013-08-11 18:21:00,75.7,57.9,30.00,NNW,335,5.0,5.0,54,0.00,,,0.00,Wunderground v.1.15,2013-08-11 22:21:00,
2013-08-11 18:26:00,75.9,58.6,30.00,NW,311,4.0,5.0,55,0.00,,,0.00,Wunderground v.1.15,2013-08-11 22:26:00,
2013-08-11 18:32:00,76.1,58.2,30.00,NW,321,4.0,5.0,54,0.00,,,0.00,Wunderground v.1.15,2013-08-11 22:32:00,
2013-08-11 18:37:00,76.1,57.7,30.00,WNW,283,4.0,7.0,53,0.00,,,0.00,Wunderground v.1.15,2013-08-11 22:37:00,
2013-08-11 18:42:00,76.0,58.2,30.00,WNW,288,5.0,5.0,54,0.00,,,0.00,Wunderground v.1.15,2013-08-11 22:42:00,
2013-08-11 18:48:00,75.6,57.8,30.00,WNW,298,5.0,7.0,54,0.00,,,0.00,Wunderground v.1.15,2013-08-11 22:48:00,
2013-08-11 18:53:00,75.3,57.5,30.00,NW,313,4.0,5.0,54,0.00,,,0.00,Wunderground v.1.15,2013-08-11 22:53:00,
2013-08-11 18:58:00,75.4,57.6,30.00,WNW,298,4.0,5.0,54,0.00,,,0.00,Wunderground v.1.15,2013-08-11 22:58:00,
2013-08-11 19:05:00,75.5,57.7,30.00,WNW,290,4.0,5.0,54,0.00,,,0.00,Wunderground v.1.15,2013-08-11 23:05:00,
2013-08-11 19:10:00,75.5,57.7,30.00,WNW,289,3.0,3.0,54,0.00,,,0.00,Wunderground v.1.15,2013-08-11 23:10:00,
2013-08-11 19:16:00,75.5,57.7,30.00,WNW,290,3.0,5.0,54,0.00,,,0.00,Wunderground v.1.15,2013-08-11 23:16:00,
2013-08-11 19:22:00,75.1,57.3,30.00,WNW,296,4.0,7.0,54,0.00,,,0.00,Wunderground v.1.15,2013-08-11 23:22:00,
2013-08-11 19:28:00,74.9,57.6,30.00,WNW,302,5.0,7.0,55,0.00,,,0.00,Wunderground v.1.15,2013-08-11 23:28:00,
2013-08-11 19:33:00,74.7,58.5,30.00,WNW,302,3.0,4.0,57,0.00,,,0.00,Wunderground v.1.15,2013-08-11 23:33:00,
2013-08-11 19:39:00,74.6,58.8,30.00,WNW,302,2.0,4.0,58,0.00,,,0.00,Wunderground v.1.15,2013-08-11 23:39:00,
2013-08-11 19:45:00,74.5,58.3,30.00,WNW,302,2.0,4.0,57,0.00,,,0.00,Wunderground v.1.15,2013-08-11 23:45:00,
2013-08-11 19:51:00,74.5,58.8,30.00,WNW,302,2.0,2.0,58,0.00,,,0.00,Wunderground v.1.15,2013-08-11 23:51:00,
2013-08-11 19:57:00,74.3,58.6,30.00,WNW,302,2.0,2.0,58,0.00,,,0.00,Wunderground v.1.15,2013-08-11 23:57:00,
2013-08-11 20:04:00,74.1,58.4,30.00,WNW,302,2.0,2.0,58,0.00,,,0.00,Wunderground v.1.15,2013-08-12 00:04:00,
2013-08-11 20:09:00,74.1,58.4,30.00,WNW,302,2.0,4.0,58,0.00,,,0.00,Wunderground v.1.15,2013-08-12 00:09:00,
2013-08-11 20:14:00,74.0,58.3,30.00,WNW,302,2.0,2.0,58,0.00,,,0.00,Wunderground v.1.15,2013-08-12 00:14:00,
2013-08-11 20:19:00,74.0,58.8,30.00,WNW,302,1.0,2.0,59,0.00,,,0.00,Wunderground v.1.15,2013-08-12 00:19:00,
2013-08-11 20:25:00,73.9,58.7,30.00,WNW,302,1.0,3.0,59,0.00,,,0.00,Wunderground v.1.15,2013-08-12 00:25:00,
2013-08-11 20:30:00,73.6,58.9,30.00,WNW,302,2.0,2.0,60,0.00,,,0.00,Wunderground v.1.15,2013-08-12 00:30:00,
2013-08-11 20:35:00,73.3,58.6,30.00,NW,315,3.0,7.0,60,0.00,,,0.00,Wunderground v.1.15,2013-08-12 00:35:00,
2013-08-11 20:40:00,73.0,58.8,30.00,NW,315,3.0,3.0,61,0.00,,,0.00,Wunderground v.1.15,2013-08-12 00:40:00,
2013-08-11 20:46:00,72.8,58.6,30.00,NW,315,2.0,3.0,61,0.00,,,0.00,Wunderground v.1.15,2013-08-12 00:46:00,
2013-08-11 20:51:00,72.6,58.8,30.00,NW,315,2.0,2.0,62,0.00,,,0.00,Wunderground v.1.15,2013-08-12 00:51:00,
2013-08-11 20:57:00,72.4,58.6,30.00,NW,315,1.0,2.0,62,0.00,,,0.00,Wunderground v.1.15,2013-08-12 00:57:00,
2013-08-11 21:02:00,72.2,58.9,30.01,NW,315,1.0,2.0,63,0.00,,,0.00,Wunderground v.1.15,2013-08-12 01:02:00,
2013-08-11 21:07:00,72.0,58.7,30.01,NW,315,1.0,2.0,63,0.00,,,0.00,Wunderground v.1.15,2013-08-12 01:07:00,
2013-08-11 21:13:00,71.9,58.6,30.01,NW,315,1.0,1.0,63,0.00,,,0.00,Wunderground v.1.15,2013-08-12 01:13:00,
2013-08-11 21:18:00,71.5,58.7,30.01,NW,315,1.0,1.0,64,0.00,,,0.00,Wunderground v.1.15,2013-08-12 01:18:00,
2013-08-11 21:24:00,71.4,59.0,30.01,NW,315,0.0,1.0,65,0.00,,,0.00,Wunderground v.1.15,2013-08-12 01:24:00,
2013-08-11 21:29:00,71.5,59.1,30.02,NW,315,0.0,1.0,65,0.00,,,0.00,Wunderground v.1.15,2013-08-12 01:29:00,
2013-08-11 21:34:00,71.5,59.1,30.01,NW,315,1.0,1.0,65,0.00,,,0.00,Wunderground v.1.15,2013-08-12 01:34:00,
2013-08-11 21:39:00,71.3,59.4,30.02,NW,315,0.0,1.0,66,0.00,,,0.00,Wunderground v.1.15,2013-08-12 01:39:00,
2013-08-11 21:46:00,71.0,59.9,30.02,NW,315,0.0,0.0,68,0.00,,,0.00,Wunderground v.1.15,2013-08-12 01:46:00,
2013-08-11 21:52:00,70.7,59.6,30.02,NW,315,0.0,0.0,68,0.00,,,0.00,Wunderground v.1.15,2013-08-12 01:52:00,
2013-08-11 21:57:00,70.7,59.6,30.02,NW,315,0.0,0.0,68,0.00,,,0.00,Wunderground v.1.15,2013-08-12 01:57:00,
2013-08-11 22:03:00,70.6,59.9,30.02,NW,315,0.0,0.0,69,0.00,,,0.00,Wunderground v.1.15,2013-08-12 02:03:00,
2013-08-11 22:08:00,70.5,59.8,30.02,NW,315,0.0,0.0,69,0.00,,,0.00,Wunderground v.1.15,2013-08-12 02:08:00,
2013-08-11 22:15:00,70.7,60.0,30.02,NW,315,0.0,0.0,69,0.00,,,0.00,Wunderground v.1.15,2013-08-12 02:15:00,
2013-08-11 22:20:00,71.2,60.1,30.02,NW,315,0.0,0.0,68,0.00,,,0.00,Wunderground v.1.15,2013-08-12 02:20:00,
2013-08-11 22:26:00,71.3,59.8,30.02,NW,315,0.0,1.0,67,0.00,,,0.00,Wunderground v.1.15,2013-08-12 02:26:00,
2013-08-11 22:31:00,71.5,60.0,30.02,NW,315,0.0,0.0,67,0.00,,,0.00,Wunderground v.1.15,2013-08-12 02:31:00,
2013-08-11 22:36:00,71.0,60.7,30.03,NW,315,0.0,0.0,70,0.00,,,0.00,Wunderground v.1.15,2013-08-12 02:36:00,
2013-08-11 22:42:00,70.6,60.7,30.03,NW,315,0.0,0.0,71,0.00,,,0.00,Wunderground v.1.15,2013-08-12 02:42:00,
2013-08-11 22:48:00,70.8,60.5,30.03,NW,315,0.0,0.0,70,0.00,,,0.00,Wunderground v.1.15,2013-08-12 02:48:00,
2013-08-11 22:54:00,70.7,60.8,30.02,NW,315,0.0,0.0,71,0.00,,,0.00,Wunderground v.1.15,2013-08-12 02:54:00,
2013-08-11 23:00:00,70.5,61.0,30.03,NW,315,0.0,0.0,72,0.00,,,0.00,Wunderground v.1.15,2013-08-12 03:00:00,
2013-08-11 23:06:00,70.7,60.8,30.03,NW,315,0.0,0.0,71,0.00,,,0.00,Wunderground v.1.15,2013-08-12 03:06:00,
2013-08-11 23:11:00,70.7,60.4,30.02,NW,315,0.0,0.0,70,0.00,,,0.00,Wunderground v.1.15,2013-08-12 03:11:00,
2013-08-11 23:17:00,70.9,60.6,30.02,NW,315,0.0,0.0,70,0.00,,,0.00,Wunderground v.1.15,2013-08-12 03:17:00,
2013-08-11 23:22:00,70.9,61.0,30.03,NW,315,0.0,0.0,71,0.00,,,0.00,Wunderground v.1.15,2013-08-12 03:22:00,
2013-08-11 23:27:00,70.6,61.1,30.02,NW,315,0.0,0.0,72,0.00,,,0.00,Wunderground v.1.15,2013-08-12 03:27:00,
2013-08-11 23:32:00,70.3,61.2,30.02,NW,315,0.0,0.0,73,0.00,,,0.00,Wunderground v.1.15,2013-08-12 03:32:00,
2013-08-11 23:39:00,70.4,60.9,30.02,NW,315,0.0,0.0,72,0.00,,,0.00,Wunderground v.1.15,2013-08-12 03:39:00,
2013-08-11 23:44:00,70.2,61.5,30.02,NW,315,0.0,0.0,74,0.00,,,0.00,Wunderground v.1.15,2013-08-12 03:44:00,
2013-08-11 23:50:00,69.5,61.2,30.02,NW,315,0.0,0.0,75,0.00,,,0.00,Wunderground v.1.15,2013-08-12 03:50:00,
2013-08-11 23:56:00,68.8,60.9,30.02,NW,315,0.0,1.0,76,0.00,,,0.00,Wunderground v.1.15,2013-08-12 03:56:00,